Time,TemperatureF,DewpointF,PressureIn,WindDirection,WindDirectionDegrees,WindSpeedMPH,WindSpeedGustMPH,Humidity,HourlyPrecipIn,Conditions,Clouds,dailyrainin,SolarRadiationWatts/m^2,SoftwareType,DateUTC
2013-01-13 00:03:00,24.0,15.0,-100.00,WNW,302,6.0,12.0,67,0.00,,,0.00,0.000000,,2013-01-13 05:03:00,
2013-01-13 00:12:00,23.0,14.0,-100.00,West,274,4.0,11.0,69,0.00,,,0.00,0.000000,,2013-01-13 05:12:00,
2013-01-13 00:33:00,23.0,14.0,-100.00,West,274,4.0,11.0,69,0.00,,,0.00,0.000000,,2013-01-13 05:33:00,
2013-01-13 00:42:00,23.0,14.0,-100.00,West,274,4.0,11.0,69,0.00,,,0.00,0.000000,,2013-01-13 05:42:00,
2013-01-13 00:53:00,23.0,14.0,-100.00,West,274,4.0,11.0,69,0.00,,,0.00,0.000000,,2013-01-13 05:53:00,
2013-01-13 01:02:00,23.0,14.0,-100.00,West,274,4.0,11.0,69,0.00,,,0.00,0.000000,,2013-01-13 06:02:00,
2013-01-13 01:12:00,23.0,14.0,-100.00,West,279,5.0,9.0,67,0.00,,,0.00,0.000000,,2013-01-13 06:12:00,
2013-01-13 01:33:00,23.0,14.0,-100.00,West,279,5.0,9.0,67,0.00,,,0.00,0.000000,,2013-01-13 06:33:00,
2013-01-13 01:42:00,23.0,14.0,-100.00,West,279,5.0,9.0,67,0.00,,,0.00,0.000000,,2013-01-13 06:42:00,
2013-01-13 01:52:00,23.0,14.0,-100.00,West,279,5.0,9.0,67,0.00,,,0.00,0.000000,,2013-01-13 06:52:00,
2013-01-13 02:02:00,23.0,14.0,-100.00,West,279,5.0,9.0,67,0.00,,,0.00,0.000000,,2013-01-13 07:02:00,
2013-01-13 02:12:00,22.0,13.0,-100.00,NW,307,6.0,10.0,68,0.00,,,0.00,0.000000,,2013-01-13 07:12:00,
2013-01-13 02:33:00,22.0,13.0,-100.00,NW,307,6.0,10.0,68,0.00,,,0.00,0.000000,,2013-01-13 07:33:00,
2013-01-13 02:42:00,22.0,13.0,-100.00,NW,307,6.0,10.0,68,0.00,,,0.00,0.000000,,2013-01-13 07:42:00,
2013-01-13 02:52:00,22.0,13.0,-100.00,NW,307,6.0,10.0,68,0.00,,,0.00,0.000000,,2013-01-13 07:52:00,
2013-01-13 03:02:00,22.0,13.0,-100.00,NW,307,6.0,10.0,68,0.00,,,0.00,0.000000,,2013-01-13 08:02:00,
2013-01-13 03:12:00,21.0,12.0,-100.00,NW,321,6.0,12.0,67,0.00,,,0.00,0.000000,,2013-01-13 08:12:00,
2013-01-13 03:32:00,21.0,12.0,-100.00,NW,321,6.0,12.0,67,0.00,,,0.00,0.000000,,2013-01-13 08:32:00,
2013-01-13 03:42:00,21.0,12.0,-100.00,NW,321,6.0,12.0,67,0.00,,,0.00,0.000000,,2013-01-13 08:42:00,
2013-01-13 03:53:00,21.0,12.0,-100.00,NW,321,6.0,12.0,67,0.00,,,0.00,0.000000,,2013-01-13 08:53:00,
2013-01-13 04:02:00,21.0,12.0,-100.00,NW,321,6.0,12.0,67,0.00,,,0.00,0.000000,,2013-01-13 09:02:00,
2013-01-13 04:12:00,20.0,11.0,-100.00,NW,314,6.0,11.0,68,0.00,,,0.00,0.000000,,2013-01-13 09:12:00,
2013-01-13 04:32:00,20.0,11.0,-100.00,NW,314,6.0,11.0,68,0.00,,,0.00,0.000000,,2013-01-13 09:32:00,
2013-01-13 04:42:00,20.0,11.0,-100.00,NW,314,6.0,11.0,68,0.00,,,0.00,0.000000,,2013-01-13 09:42:00,
2013-01-13 04:52:00,20.0,11.0,-100.00,NW,314,6.0,11.0,68,0.00,,,0.00,0.000000,,2013-01-13 09:52:00,
2013-01-13 05:02:00,20.0,11.0,-100.00,NW,314,6.0,11.0,68,0.00,,,0.00,0.000000,,2013-01-13 10:02:00,
2013-01-13 05:12:00,19.0,10.0,-100.00,NW,324,7.0,11.0,67,0.00,,,0.00,0.000000,,2013-01-13 10:12:00,
2013-01-13 05:32:00,19.0,10.0,-100.00,NW,324,7.0,11.0,67,0.00,,,0.00,0.000000,,2013-01-13 10:32:00,
2013-01-13 05:42:00,19.0,10.0,-100.00,NW,324,7.0,11.0,67,0.00,,,0.00,0.000000,,2013-01-13 10:42:00,
2013-01-13 05:53:00,19.0,10.0,-100.00,NW,324,7.0,11.0,67,0.00,,,0.00,0.000000,,2013-01-13 10:53:00,
2013-01-13 06:02:00,19.0,10.0,-100.00,NW,324,7.0,11.0,67,0.00,,,0.00,0.000000,,2013-01-13 11:02:00,
2013-01-13 06:12:00,19.0,10.0,-100.00,NW,322,5.0,10.0,68,0.00,,,0.00,0.000000,,2013-01-13 11:12:00,
2013-01-13 06:33:00,19.0,10.0,-100.00,NW,322,5.0,10.0,68,0.00,,,0.00,0.000000,,2013-01-13 11:33:00,
2013-01-13 06:42:00,19.0,10.0,-100.00,NW,322,5.0,10.0,68,0.00,,,0.00,0.000000,,2013-01-13 11:42:00,
2013-01-13 06:53:00,19.0,10.0,-100.00,NW,322,5.0,10.0,68,0.00,,,0.00,0.000000,,2013-01-13 11:53:00,
2013-01-13 07:03:00,19.0,10.0,-100.00,NW,322,5.0,10.0,68,0.00,,,0.00,0.000000,,2013-01-13 12:03:00,
2013-01-13 07:12:00,19.0,10.0,-100.00,NNW,338,4.0,9.0,67,0.00,,,0.00,0.000000,,2013-01-13 12:12:00,
2013-01-13 07:33:00,19.0,10.0,-100.00,NNW,338,4.0,9.0,67,0.00,,,0.00,0.000000,,2013-01-13 12:33:00,
2013-01-13 07:42:00,19.0,10.0,-100.00,NNW,338,4.0,9.0,67,0.00,,,0.00,0.000000,,2013-01-13 12:42:00,
2013-01-13 07:53:00,19.0,10.0,-100.00,NNW,338,4.0,9.0,67,0.00,,,0.00,0.000000,,2013-01-13 12:53:00,
2013-01-13 08:02:00,19.0,10.0,-100.00,NNW,338,4.0,9.0,67,0.00,,,0.00,0.000000,,2013-01-13 13:02:00,
2013-01-13 08:12:00,19.0,10.0,-100.00,NW,315,4.0,7.0,67,0.00,,,0.00,0.000000,,2013-01-13 13:12:00,
2013-01-13 08:33:00,19.0,10.0,-100.00,NW,315,4.0,7.0,67,0.00,,,0.00,0.000000,,2013-01-13 13:33:00,
2013-01-13 08:43:00,19.0,10.0,-100.00,NW,315,4.0,7.0,67,0.00,,,0.00,0.000000,,2013-01-13 13:43:00,
2013-01-13 08:53:00,19.0,10.0,-100.00,NW,315,4.0,7.0,67,0.00,,,0.00,0.000000,,2013-01-13 13:53:00,
2013-01-13 09:03:00,19.0,10.0,-100.00,NW,315,4.0,7.0,67,0.00,,,0.00,0.000000,,2013-01-13 14:03:00,
2013-01-13 09:12:00,19.0,11.0,-100.00,NNW,329,4.0,7.0,69,0.00,,,0.00,2.000000,,2013-01-13 14:12:00,
2013-01-13 09:33:00,19.0,11.0,-100.00,NNW,329,4.0,7.0,69,0.00,,,0.00,2.000000,,2013-01-13 14:33:00,
2013-01-13 09:43:00,19.0,11.0,-100.00,NNW,329,4.0,7.0,69,0.00,,,0.00,2.000000,,2013-01-13 14:43:00,
2013-01-13 09:53:00,19.0,11.0,-100.00,NNW,329,4.0,7.0,69,0.00,,,0.00,2.000000,,2013-01-13 14:53:00,
2013-01-13 10:03:00,19.0,11.0,-100.00,NNW,329,4.0,7.0,69,0.00,,,0.00,2.000000,,2013-01-13 15:03:00,
2013-01-13 10:12:00,18.0,10.0,-100.00,NW,318,5.0,11.0,69,0.00,,,0.00,31.000000,,2013-01-13 15:12:00,
2013-01-13 10:33:00,18.0,10.0,-100.00,NW,318,5.0,11.0,69,0.00,,,0.00,31.000000,,2013-01-13 15:33:00,
2013-01-13 10:43:00,18.0,10.0,-100.00,NW,318,5.0,11.0,69,0.00,,,0.00,31.000000,,2013-01-13 15:43:00,
2013-01-13 10:53:00,18.0,10.0,-100.00,NW,318,5.0,11.0,69,0.00,,,0.00,31.000000,,2013-01-13 15:53:00,
2013-01-13 11:03:00,18.0,10.0,-100.00,NW,318,5.0,11.0,69,0.00,,,0.00,31.000000,,2013-01-13 16:03:00,
2013-01-13 11:12:00,18.0,11.0,-100.00,NW,321,4.0,10.0,72,0.00,,,0.00,59.000000,,2013-01-13 16:12:00,
2013-01-13 11:33:00,18.0,11.0,-100.00,NW,321,4.0,10.0,72,0.00,,,0.00,59.000000,,2013-01-13 16:33:00,
2013-01-13 11:43:00,18.0,11.0,-100.00,NW,321,4.0,10.0,72,0.00,,,0.00,59.000000,,2013-01-13 16:43:00,
2013-01-13 11:53:00,18.0,11.0,-100.00,NW,321,4.0,10.0,72,0.00,,,0.00,59.000000,,2013-01-13 16:53:00,
2013-01-13 12:03:00,18.0,11.0,-100.00,NW,321,4.0,10.0,72,0.00,,,0.00,59.000000,,2013-01-13 17:03:00,
2013-01-13 12:12:00,19.0,12.0,-100.00,NW,316,5.0,9.0,73,0.00,,,0.00,79.000000,,2013-01-13 17:12:00,
2013-01-13 12:33:00,19.0,12.0,-100.00,NW,316,5.0,9.0,73,0.00,,,0.00,79.000000,,2013-01-13 17:33:00,
2013-01-13 12:43:00,19.0,12.0,-100.00,NW,316,5.0,9.0,73,0.00,,,0.00,79.000000,,2013-01-13 17:43:00,
2013-01-13 12:53:00,19.0,12.0,-100.00,NW,316,5.0,9.0,73,0.00,,,0.00,79.000000,,2013-01-13 17:53:00,
2013-01-13 13:03:00,19.0,12.0,-100.00,NW,316,5.0,9.0,73,0.00,,,0.00,79.000000,,2013-01-13 18:03:00,
2013-01-13 13:12:00,19.0,12.0,-100.00,NW,321,3.0,8.0,74,0.00,,,0.00,100.000000,,2013-01-13 18:12:00,
2013-01-13 13:33:00,19.0,12.0,-100.00,NW,321,3.0,8.0,74,0.00,,,0.00,100.000000,,2013-01-13 18:33:00,
2013-01-13 13:43:00,19.0,12.0,-100.00,NW,321,3.0,8.0,74,0.00,,,0.00,100.000000,,2013-01-13 18:43:00,
2013-01-13 13:53:00,19.0,12.0,-100.00,NW,321,3.0,8.0,74,0.00,,,0.00,100.000000,,2013-01-13 18:53:00,
2013-01-13 14:02:00,19.0,12.0,-100.00,NW,321,3.0,8.0,74,0.00,,,0.00,100.000000,,2013-01-13 19:02:00,
2013-01-13 14:12:00,20.0,12.0,-100.00,WNW,295,5.0,9.0,70,0.00,,,0.00,110.000000,,2013-01-13 19:12:00,
2013-01-13 14:43:00,20.0,12.0,-100.00,WNW,295,5.0,9.0,70,0.00,,,0.00,110.000000,,2013-01-13 19:43:00,
2013-01-13 14:53:00,20.0,12.0,-100.00,WNW,295,5.0,9.0,70,0.00,,,0.00,110.000000,,2013-01-13 19:53:00,
2013-01-13 15:03:00,20.0,12.0,-100.00,WNW,295,5.0,9.0,70,0.00,,,0.00,110.000000,,2013-01-13 20:03:00,
2013-01-13 15:12:00,20.0,10.0,-100.00,NNW,333,3.0,9.0,65,0.00,,,0.00,91.000000,,2013-01-13 20:12:00,
2013-01-13 15:33:00,20.0,10.0,-100.00,NNW,333,3.0,9.0,65,0.00,,,0.00,91.000000,,2013-01-13 20:33:00,
2013-01-13 15:43:00,20.0,10.0,-100.00,NNW,333,3.0,9.0,65,0.00,,,0.00,91.000000,,2013-01-13 20:43:00,
2013-01-13 15:53:00,20.0,10.0,-100.00,NNW,333,3.0,9.0,65,0.00,,,0.00,91.000000,,2013-01-13 20:53:00,
2013-01-13 16:03:00,20.0,10.0,-100.00,NNW,333,3.0,9.0,65,0.00,,,0.00,91.000000,,2013-01-13 21:03:00,
2013-01-13 16:12:00,20.0,11.0,-100.00,NW,318,3.0,8.0,67,0.00,,,0.00,53.000000,,2013-01-13 21:12:00,
2013-01-13 16:33:00,20.0,11.0,-100.00,NW,318,3.0,8.0,67,0.00,,,0.00,53.000000,,2013-01-13 21:33:00,
2013-01-13 16:43:00,20.0,11.0,-100.00,NW,318,3.0,8.0,67,0.00,,,0.00,53.000000,,2013-01-13 21:43:00,
2013-01-13 16:53:00,20.0,11.0,-100.00,NW,318,3.0,8.0,67,0.00,,,0.00,53.000000,,2013-01-13 21:53:00,
2013-01-13 17:02:00,20.0,11.0,-100.00,NW,318,3.0,8.0,67,0.00,,,0.00,53.000000,,2013-01-13 22:02:00,
2013-01-13 18:12:00,19.0,10.0,-100.00,NW,324,5.0,8.0,67,-99.99,,,0.00,2.000000,,2013-01-13 23:12:00,
2013-01-13 18:33:00,19.0,10.0,-100.00,NW,324,5.0,8.0,67,-99.99,,,0.00,2.000000,,2013-01-13 23:33:00,
2013-01-13 18:43:00,19.0,10.0,-100.00,NW,324,5.0,8.0,67,-99.99,,,0.00,2.000000,,2013-01-13 23:43:00,
2013-01-13 18:53:00,19.0,10.0,-100.00,NW,324,5.0,8.0,67,-99.99,,,0.00,2.000000,,2013-01-13 23:53:00,
2013-01-13 19:03:00,19.0,10.0,-100.00,NW,324,5.0,8.0,67,-99.99,,,0.00,2.000000,,2013-01-14 00:03:00,
2013-01-13 19:12:00,18.0,8.0,-100.00,NW,322,5.0,11.0,63,0.00,,,0.00,0.000000,,2013-01-14 00:12:00,
2013-01-13 19:43:00,18.0,8.0,-100.00,NW,322,5.0,11.0,63,0.00,,,0.00,0.000000,,2013-01-14 00:43:00,
2013-01-13 19:53:00,18.0,8.0,-100.00,NW,322,5.0,11.0,63,0.00,,,0.00,0.000000,,2013-01-14 00:53:00,
2013-01-13 20:03:00,18.0,8.0,-100.00,NW,322,5.0,11.0,63,0.00,,,0.00,0.000000,,2013-01-14 01:03:00,
2013-01-13 20:12:00,17.0,8.0,-100.00,WNW,303,5.0,11.0,66,0.00,,,0.00,0.000000,,2013-01-14 01:12:00,
2013-01-13 20:42:00,17.0,8.0,-100.00,WNW,303,5.0,11.0,66,0.00,,,0.00,0.000000,,2013-01-14 01:42:00,
2013-01-13 20:53:00,17.0,8.0,-100.00,WNW,303,5.0,11.0,66,0.00,,,0.00,0.000000,,2013-01-14 01:53:00,
2013-01-13 21:03:00,17.0,8.0,-100.00,WNW,303,5.0,11.0,66,0.00,,,0.00,0.000000,,2013-01-14 02:03:00,
2013-01-13 21:12:00,16.0,7.0,-100.00,WNW,303,6.0,12.0,68,0.00,,,0.00,0.000000,,2013-01-14 02:12:00,
2013-01-13 21:43:00,16.0,7.0,-100.00,WNW,303,6.0,12.0,68,0.00,,,0.00,0.000000,,2013-01-14 02:43:00,
2013-01-13 21:53:00,16.0,7.0,-100.00,WNW,303,6.0,12.0,68,0.00,,,0.00,0.000000,,2013-01-14 02:53:00,
2013-01-13 22:02:00,16.0,7.0,-100.00,WNW,303,6.0,12.0,68,0.00,,,0.00,0.000000,,2013-01-14 03:02:00,
2013-01-13 22:12:00,15.0,7.0,-100.00,WNW,295,5.0,12.0,71,0.00,,,0.00,0.000000,,2013-01-14 03:12:00,
2013-01-13 22:33:00,15.0,7.0,-100.00,WNW,295,5.0,12.0,71,0.00,,,0.00,0.000000,,2013-01-14 03:33:00,
2013-01-13 22:43:00,15.0,7.0,-100.00,WNW,295,5.0,12.0,71,0.00,,,0.00,0.000000,,2013-01-14 03:43:00,
2013-01-13 22:53:00,15.0,7.0,-100.00,WNW,295,5.0,12.0,71,0.00,,,0.00,0.000000,,2013-01-14 03:53:00,
2013-01-13 23:02:00,15.0,7.0,-100.00,WNW,295,5.0,12.0,71,0.00,,,0.00,0.000000,,2013-01-14 04:02:00,
2013-01-13 23:12:00,14.0,7.0,-100.00,WNW,290,7.0,15.0,74,0.00,,,0.00,0.000000,,2013-01-14 04:12:00,
2013-01-13 23:32:00,14.0,7.0,-100.00,WNW,290,7.0,15.0,74,0.00,,,0.00,0.000000,,2013-01-14 04:32:00,
2013-01-13 23:42:00,14.0,7.0,-100.00,WNW,290,7.0,15.0,74,0.00,,,0.00,0.000000,,2013-01-14 04:42:00,
2013-01-13 23:53:00,14.0,7.0,-100.00,WNW,290,7.0,15.0,74,0.00,,,0.00,0.000000,,2013-01-14 04:53:00,